Somerville, NJ

2:38 AM EDT on May 24, 2017 (GMT -0400)
Somerset

Weather History for KSMQ - January, 2012

Change the Weather History Date:

Wednesday, January 11, 2012

  Actual Average Record
Temperature  
Mean Temperature 34 °F -  
Max Temperature 48 °F 34 °F 62 °F (2014)
Min Temperature 21 °F 17 °F -7 °F (1988)
Degree Days  
Heating Degree Days 30    
Moisture  
Dew Point 27 °F    
Average Humidity 75    
Maximum Humidity 93    
Minimum Humidity 42    
Precipitation  
Precipitation 0.25 in - - ()
Sea Level Pressure  
Sea Level Pressure 29.98 in    
Wind  
Wind Speed 2 mph (ESE)    
Max Wind Speed 7 mph    
Max Gust Speed -    
Visibility 9 miles    
Events Rain    
Averages and records for this station are not official NWS values.
T = Trace of Precipitation, MM = Missing Value Source: NWS Daily Summary

Daily Weather History Graph

Daily Weather History Graph

Search for Another Location

Airport or City:

Trip Planner

Search our weather history database for the weather conditions in past years. The results will help you decide how hot, cold, wet, or windy it might be!

Date:

Astronomy

Jan. 11, 2012 Rise Set
Actual Time 7:21 AM EST 4:51 PM EST
Civil Twilight 6:51 AM EST 5:21 PM EST
Nautical Twilight 6:17 AM EST 5:55 PM EST
Astronomical Twilight 5:44 AM EST 6:28 PM EST
Moon 7:48 PM EST (1/11) 8:31 AM EST (1/11)
Length of Visible Light 10h 30m
Length of Day
9h 29m
Waning Gibbous, 93% of the Moon is Illuminated
Jan 11
Waning Gibbous
Jan 16
Last Quarter
Jan 23
New
Jan 30
First Quarter
Feb 7
Full

Hourly Weather History & Observations

Time (EST) Temp. Windchill Dew Point Humidity Pressure Visibility Wind Dir Wind Speed Gust Speed Precip Events Conditions
12:53 AM 25.0 °F - 21.0 °F 85% 30.03 in 10.0 mi Calm Calm - N/A   Clear
1:53 AM 24.1 °F - 19.9 °F 84% 30.04 in 10.0 mi Calm Calm - N/A   Clear
2:53 AM 23.0 °F - 19.0 °F 85% 30.05 in 10.0 mi Calm Calm - N/A   Clear
3:53 AM 21.9 °F - 18.0 °F 85% 30.04 in 10.0 mi Calm Calm - N/A   Clear
4:53 AM 21.9 °F - 19.0 °F 89% 30.04 in 10.0 mi Calm Calm - N/A   Clear
5:53 AM 21.9 °F - 18.0 °F 85% 30.05 in 10.0 mi Calm Calm - N/A   Clear
6:53 AM 21.0 °F - 17.1 °F 85% 30.06 in 10.0 mi Calm Calm - N/A   Clear
7:53 AM 21.9 °F - 18.0 °F 85% 30.05 in 10.0 mi Calm Calm - N/A   Clear
8:53 AM 28.0 °F - 25.0 °F 88% 30.08 in 10.0 mi Calm Calm - N/A   Clear
9:53 AM 35.1 °F - 27.0 °F 72% 30.11 in 10.0 mi Calm Calm - N/A   Clear
10:53 AM 41.0 °F - 27.0 °F 57% 30.08 in 10.0 mi Calm Calm - N/A   Unknown
11:53 AM 46.9 °F - 25.0 °F 42% 30.04 in - North - - N/A   Unknown
12:53 PM - - - N/A% 30.01 in - North - - N/A   Unknown
2:53 PM 48.0 °F - 26.1 °F 42% 29.98 in 10.0 mi SE 6.9 mph - N/A   Clear
3:53 PM 45.0 °F 41.8 °F 28.0 °F 52% 29.96 in 10.0 mi ESE 5.8 mph - N/A   Clear
4:53 PM 43.0 °F 40.3 °F 28.9 °F 58% 29.96 in 10.0 mi ESE 4.6 mph - N/A   Clear
5:53 PM 43.0 °F 40.3 °F 28.9 °F 58% 29.95 in 10.0 mi ESE 4.6 mph - N/A   Scattered Clouds
6:53 PM 43.0 °F 39.5 °F 28.9 °F 58% 29.95 in 10.0 mi ESE 5.8 mph - N/A   Overcast
7:53 PM 44.1 °F 40.8 °F 32.0 °F 63% 29.93 in 10.0 mi ESE 5.8 mph - N/A   Overcast
8:53 PM 42.1 °F 37.7 °F 37.0 °F 82% 29.90 in 8.0 mi East 6.9 mph - 0.02 in Rain Light Rain
9:53 PM 42.1 °F 38.4 °F 37.9 °F 85% 29.87 in 8.0 mi Variable 5.8 mph - 0.02 in Rain Light Rain
10:48 PM 42.8 °F 38.6 °F 39.2 °F 87% 29.83 in 6.0 mi ENE 6.9 mph - 0.07 in Rain Light Rain
10:53 PM 42.1 °F 38.4 °F 39.0 °F 89% 29.83 in 5.0 mi ENE 5.8 mph - 0.08 in Rain Light Rain
11:41 PM 41.0 °F 36.4 °F 39.2 °F 93% 29.78 in 4.0 mi Variable 6.9 mph - 0.11 in Rain Rain
11:53 PM 41.0 °F 36.4 °F 37.9 °F 89% 29.77 in 5.0 mi Variable 6.9 mph - 0.13 in Rain Light Rain